Погода в Кирове

Россия / Пензенская область     52°47′16″N   44°00′04″E
темп.,
°C
ветер,
м/с
пор.,
м/с
влажн.,
%
обл.,
%
осадки,
мм/ч
давл.,
гПа
погр.,
м
10 мая, пн
пн1000:00+7сз5996100 3.8 1014432
03:00+7ссз5996100 5.8 1014396
06:00+7ссз5998100 3.1 1015379
09:00+9с71097100 5.4 1015323
12:00+12ссв81291100 0.4 1015467
15:00+15ссв101588100 0.4 1015647
18:00+15ссв101890100 0.9 1015521
21:00+15св91885100 1.5 1016426
11 мая, вт
вт1100:00+14св81688100 0.1 1016386
03:00+13св81684100 0.1 1017391
06:00+14всв71677100 0.0 1018586
09:00+10ю3692100 0.2 1022262
12:00+13юв477895 0.2 1024934
15:00+16ююв56520 0.2 10251316
18:00+15юв35640 0.0 1026267
21:00+11св1169100 0.0 102710
12 мая, ср
ср1200:00+11с2368100 0.0 102635
03:00+9ссв3693100 0.9 1025219
06:00+10св41198100 3.7 1023414
09:00+14в81589100 4.1 10221030
12:00+16вюв8137671 0.3 10221107
15:00+18юв8116895 0.3 10221402
18:00+15юв388294 0.1 1023352
21:00+14вюв41187100 0.1 1023341
13 мая, чт
чт1300:00+13в4119176 0.0 1022267
03:00+14всв51377100 0.0 1021283
06:00+14вюв51474100 0.3 1021442
09:00+18юв7126362 0.3 1021649
12:00+20юв7106160 0.2 10211053
15:00+20юв7106887 0.2 1021832
18:00+20ююв5107237 0.6 1021457
21:00+17вюв41084100 0.9 1021230
14 мая, пт
пт1400:00+16вюв4147699 0.0 1021322
03:00+13вюв4107911 0.0 1021217
06:00+14юв410795 0.0 1022244
09:00+20юв58596 0.0 1021454
12:00+24ююв6948100 0.0 1020907
15:00+25ююв610515 0.0 10201231
18:00+22юв51161100 0.0 1019354
21:00+17юв5157042 0.0 1019274